Regional Weather Roundup
Issued by NWS

Home | Current Version | Previous Version | Graphics & Text | Print | Product List | Glossary On
Versions: 1 2 3 4 5 6 7 8 9 10 11 12 13 14 15 16 17 18 19 20 21 22 23 24 25 26 27 28 29 30 31 32 33 34 35 36 37 38 39 40 41 42 43 44 45 46 47 48 49 50
597
ASUS44 KLIX 302305
RWRLA
LOUISIANA WEATHER ROUNDUP
NATIONAL WEATHER SERVICE NEW ORLEANS LA
500 PM CST FRI JAN 30 2015

NOTE: "FAIR" INDICATES FEW OR NO CLOUDS BELOW 12,000 FEET WITH NO
      SIGNIFICANT WEATHER AND/OR OBSTRUCTIONS TO VISIBILITY.
      SKY/WX - SKY CONDITION AND SIGNIFICANT WEATHER.
      TMP - AIR TEMPERATURE.    DP   - DEWPOINT TEMPERATURE.
      RH  - RELATIVE HUMIDITY.  PRES - PRESSURE.
      HX  - HEAT INDEX.         WCI  - WIND CHILL INDEX.

*  THESE STATIONS ARE NOT NWS OR FAA STATIONS AND ARE NOT UNDER
   NWS QUALITY CONTROL.

LAZ040-048-061>063-065-066-069-310000-
SOUTHEAST LOUISIANA

CITY           SKY/WX    TMP DP  RH WIND       PRES   REMARKS
N.O. AUDUBON     N/A     56  37  49 MISG        N/A
N.O. INTL ARPT MOCLDY    56  33  42 N5        30.32S
N.O. LAKEFRONT MOCLDY    56  43  61 W6        30.32F
N.O. DOWNTOWN* NOT AVBL
SLIDELL        MOCLDY    57  32  38 N6        30.31S
BATON ROUGE    MOCLDY    59  29  31 N5        30.32F
BOOTHVILLE     PTCLDY    54  40  59 N7        30.32S
BELLE CHASSE   MOCLDY    58  33  39 NW5       30.31S
BOGALUSA*        N/A     59  30  32 N6        30.33F
GALLIANO*      PTCLDY    58  40  51 MISG      30.31S
NEW ROADS*     FAIR      56  33  41 CALM      30.34S
GONZALES*      FAIR      59  30  32 NE6       30.31S
HAMMOND*       MOCLDY    57  28  33 CALM      30.34S
HOUMA*         CLEAR     57  34  41 N9        30.32R
PORT FOURCHON* CLEAR     57  39  51 NE13      30.34S

$$

LAZ041-044-053-054-310000-
SOUTHWEST LOUISIANA

CITY           SKY/WX    TMP DP  RH WIND       PRES   REMARKS
LAKE CHARLES   PTCLDY    59  35  40 NE10      30.32S
LAFAYETTE      MOCLDY    58  36  43 N9        30.32F
PATTERSON      PTCLDY    57  34  41 NE7       30.32F
SALT POINT       N/A     60  35  39 VRB3      30.30S
NEW IBERIA     MOCLDY    61  34  36 N9        30.32F
CHENAULT AIRPK NOT AVBL

$$

LAZ027-028-310000-
CENTRAL LOUISIANA

CITY           SKY/WX    TMP DP  RH WIND       PRES   REMARKS
FORT POLK      PTCLDY    56  32  40 E5        30.34S
ALEXANDRIA INT PTCLDY    56  31  38 N8        30.34S
ALEXANDRIA     PTCLDY    54  31  41 N7        30.37R

$$

LAZ001-002-310000-
NORTHWEST LOUISIANA

CITY           SKY/WX    TMP DP  RH WIND       PRES   REMARKS
SHREVEPORT     MOCLDY    56  28  34 E5        30.36F
BARKSDALE AFB  PTCLDY    55  30  37 NE3       30.37S
DTN SHREVEPORT PTCLDY    56  26  31 E3        30.37S

$$

LAZ014-016-310000-
NORTHEAST LOUISIANA

CITY           SKY/WX    TMP DP  RH WIND       PRES   REMARKS
MONROE         PTCLDY    51  32  48 E7        30.40F
TALLULAH       PTCLDY    51  33  50 N12       30.39R

$$




USA.gov is the U.S. government's official web portal to all federal, state and local government web resources and services.